#timestamp,LO_Frequency,Hit,StdDev 
1635688815.8,286046994.6,N
1635688835.6,286046992.3,N
1635688855.5,286046987.2,Y
1635688875.3,286046985.1,P
1635688895.2,286046985.0,N
1635688915.0,286046985.4,N
1635688915.9,286046985.4,N
1635688935.8,286046986.7,N
1635688955.6,286046988.3,N
1635688975.5,286046993.2,N
1635688995.3,286046994.1,N
1635689015.1,286046993.3,N
1635689035.9,286046992.8,N
1635689055.7,286046991.2,N
1635689075.6,286046985.4,Y
1635689095.4,286046997.7,P
1635689115.2,286047002.8,N
1635689135.1,286047002.5,N
1635689136.0,286047002.5,N
1635689155.8,286047001.7,N
1635689175.7,286047007.6,N
1635689195.5,286047009.2,N
1635689215.3,286047003.1,N
1635689235.2,286047004.0,N
1635689255.9,286047004.0,N
1635689275.7,286047003.5,N
1635689295.6,286047007.1,N
1635689315.4,286047004.8,N
1635689335.3,286047002.8,N
1635689355.1,286046998.6,N
1635689356.0,286046998.6,N
1635689375.8,286047000.6,N
1635689395.7,286046999.3,N
1635689415.5,286046992.3,N
1635689435.3,286046991.9,N
1635689455.2,286046992.2,N
1635689475.0,286046992.3,N
1635689475.9,286046992.3,N
1635689495.8,286046997.9,N
1635689515.6,286046994.9,N
1635689535.4,286046999.2,N
1635689555.3,286046995.1,N
1635689575.1,286046994.2,N
1635689595.8,286046993.5,N
1635689615.7,286046994.9,N
1635689635.5,286046998.3,N
1635689655.4,286046997.8,N
1635689675.2,286046992.5,N
1635689695.0,286046990.4,N
1635689695.9,286046990.4,N
1635689715.8,286046992.6,N
1635689735.6,286046991.6,N
1635689755.4,286046988.9,N
1635689775.3,286046993.1,N
1635689795.1,286046994.2,N
1635689815.9,286046991.9,N
1635689835.7,286046988.2,N
1635689855.5,286046989.9,N
1635689875.4,286046985.3,Y
1635689895.2,286046989.0,P
1635689915.0,286046985.4,P
1635689916.0,286046985.4,P
1635689935.8,286046985.9,Y
1635689955.6,286046996.5,P
1635689975.5,286046998.4,N
1635689995.3,286047000.7,N
1635690015.1,286047000.0,N
1635690035.9,286046999.9,N
1635690055.7,286046996.9,N
1635690075.6,286046998.0,N
1635690095.4,286046992.6,N
1635690115.2,286046992.5,N
1635690135.1,286046996.9,N
1635690136.0,286046996.9,N
1635690155.8,286047004.3,N
1635690175.7,286047010.8,N
1635690195.5,286047010.4,N
1635690215.3,286047009.9,N
1635690235.2,286047009.4,N
1635690255.9,286047012.4,N
1635690275.7,286047010.3,N
1635690295.6,286047009.5,N
1635690315.4,286047011.9,N
1635690335.3,286047013.6,N
1635690355.1,286047013.6,N
1635690356.0,286047013.6,N
1635690375.8,286047012.1,N
1635690395.7,286047013.0,N
1635690415.5,286047014.9,N
1635690435.4,286047013.3,N
1635690455.2,286047015.0,N
1635690475.0,286047015.3,N
1635690476.0,286047015.3,N
1635690495.8,286047014.1,N
1635690515.6,286047014.4,N
1635690535.5,286047015.5,N
1635690555.3,286047014.8,N
1635690575.1,286047014.4,N
1635690595.9,286047014.5,N
1635690615.7,286047013.9,N
1635690635.6,286047008.2,N
1635690655.4,286047006.0,N
1635690675.2,286047008.2,N
1635690695.1,286047010.5,N
1635690696.0,286047010.5,Y
1635690715.8,286047001.1,P
1635690735.6,286046996.4,N
1635690755.5,286046997.4,N
1635690775.3,286047002.7,N
1635690795.2,286047005.5,N
1635690815.9,286047006.8,N
1635690835.7,286047010.6,N
1635690855.6,286047008.0,N
1635690875.4,286047006.7,N
1635690895.2,286047000.4,N
1635690915.1,286046993.0,N
1635690916.0,286046993.0,N
1635690935.8,286046992.3,N
1635690955.7,286046993.4,N
1635690975.5,286046994.3,N
1635690995.3,286046993.4,N
1635691015.2,286046997.7,N
1635691035.0,286047002.3,N
1635691035.9,286047002.3,N
1635691055.7,286047003.4,N
1635691075.6,286047001.8,N
1635691095.4,286047002.1,N
1635691115.3,286047001.6,N
1635691135.1,286047005.9,N
1635691136.0,286047005.9,N
1635691155.8,286047007.5,N
1635691175.7,286047007.4,N
1635691195.5,286047006.0,N
1635691215.4,286047006.1,N
1635691235.2,286047009.1,N
1635691255.0,286047006.5,N
1635691255.9,286047006.5,N
1635691275.8,286046999.8,N
1635691295.6,286046998.4,N
1635691315.4,286047002.7,N
1635691335.3,286047001.4,N
1635691355.1,286046999.9,N
1635691375.9,286047000.0,N
1635691395.7,286047004.3,N
1635691415.5,286047002.1,N
1635691435.4,286047002.3,N
1635691455.2,286047002.2,N
1635691475.1,286047001.9,N
1635691476.0,286047001.9,N
1635691495.8,286047005.2,N
1635691515.6,286047003.1,N
1635691535.5,286047005.3,N
1635691555.3,286046999.7,N
1635691575.1,286046996.1,N
1635691595.9,286046987.3,Y
1635691615.7,286046987.8,P
1635691635.6,286046992.6,N
1635691655.4,286046995.4,N
1635691675.2,286046997.1,N
1635691695.1,286047001.0,N
1635691696.0,286047001.0,N
1635691715.8,286047004.3,N
1635691735.7,286047002.9,N
1635691755.5,286047005.1,N
1635691775.3,286047009.0,N
1635691795.2,286047008.4,N
1635691815.0,286047007.4,N
1635691815.9,286047007.4,N
1635691835.8,286047001.6,N
1635691855.6,286047003.6,N
1635691875.4,286047006.7,N
1635691895.3,286047008.2,N
1635691915.1,286047011.9,N
1635691935.8,286047013.9,N
1635691955.7,286047012.3,N
1635691975.5,286047009.7,N
1635691995.4,286047012.2,N
1635692015.2,286047010.9,N
1635692035.0,286047015.5,N
1635692035.9,286047015.5,N
1635692055.8,286047013.1,N
1635692075.6,286047011.0,N
1635692095.5,286047008.3,N
1635692115.3,286047006.2,N
1635692135.1,286047006.5,N
1635692155.9,286047008.1,N
1635692175.7,286047006.8,N
1635692195.5,286047000.2,N
1635692215.4,286046998.7,N
1635692235.2,286047002.2,N
1635692255.1,286047000.2,N
1635692256.0,286047000.2,N
1635692275.8,286046997.8,N
1635692295.6,286046994.3,N
1635692315.5,286046993.2,N
1635692335.3,286046994.4,N
1635692355.2,286046996.9,N
1635692375.9,286046997.9,N
1635692395.7,286046997.1,N
